| time (UTC) | temp C | wind direction | speed KPH | gust KPH | rain 1hr cm | rain 24hr cm | rain mn cm | humidity % | barometer mb |
| 20260504214323 | 25 | 0.0 | 0.0 | 0.00 | 0.00 | 0.00 | 69 | ||
| 20260504213323 | 25 | 0.0 | 0.0 | 0.00 | 0.00 | 0.00 | 69 | ||
| 20260504212323 | 25 | 0.0 | 0.0 | 0.00 | 0.00 | 0.00 | 69 | ||
| 20260504211323 | 25 | 0.0 | 0.0 | 0.00 | 0.00 | 0.00 | 69 | ||
| 20260504210323 | 25 | 0.0 | 0.0 | 0.00 | 0.00 | 0.00 | 69 | ||
| 20260504205323 | 25 | 0.0 | 0.0 | 0.00 | 0.00 | 0.00 | 69 | ||
| 20260504204323 | 25 | 0.0 | 0.0 | 0.00 | 0.00 | 0.00 | 69 | ||
| 20260504203323 | 25 | 0.0 | 0.0 | 0.00 | 0.00 | 0.00 | 68 | ||
| 20260504202323 | 25 | 0.0 | 0.0 | 0.00 | 0.00 | 0.00 | 68 | ||
| 20260504201323 | 25 | 0.0 | 0.0 | 0.00 | 0.00 | 0.00 | 69 | ||
| 20260504200323 | 25 | 0.0 | 0.0 | 0.00 | 0.00 | 0.00 | 69 | ||
| 20260504195323 | 25 | 0.0 | 0.0 | 0.00 | 0.00 | 0.00 | 66 | ||
| 20260504194323 | 25 | 0.0 | 0.0 | 0.00 | 0.00 | 0.00 | 65 | ||
| 20260504193323 | 25 | 0.0 | 0.0 | 0.00 | 0.00 | 0.00 | 63 | ||
| 20260504192323 | 25 | 0.0 | 0.0 | 0.00 | 0.00 | 0.00 | 66 | ||
| 20260504191323 | 25 | 0.0 | 0.0 | 0.00 | 0.00 | 0.00 | 64 | ||
| 20260504190323 | 25 | 0.0 | 0.0 | 0.00 | 0.00 | 0.00 | 63 | ||
| 20260504185323 | 26 | 0.0 | 0.0 | 0.00 | 0.00 | 0.00 | 63 | ||
| 20260504184323 | 25 | 0.0 | 0.0 | 0.00 | 0.00 | 0.00 | 64 | ||
| 20260504183323 | 26 | 0.0 | 0.0 | 0.00 | 0.00 | 0.00 | 64 | ||
| 20260504182323 | 25 | 0.0 | 0.0 | 0.00 | 0.00 | 0.00 | 64 | ||
| 20260504181323 | 25 | 0.0 | 0.0 | 0.00 | 0.00 | 0.00 | 64 | ||
| 20260504180322 | 25 | 0.0 | 0.0 | 0.00 | 0.00 | 0.00 | 64 | ||
| 20260504175322 | 25 | 0.0 | 0.0 | 0.00 | 0.00 | 0.00 | 64 | ||
| 20260504174322 | 25 | 0.0 | 0.0 | 0.00 | 0.00 | 0.00 | 64 | ||
| 20260504173322 | 25 | 0.0 | 0.0 | 0.00 | 0.00 | 0.00 | 63 | ||
| 20260504172322 | 25 | 0.0 | 0.0 | 0.00 | 0.00 | 0.00 | 63 | ||
| 20260504171322 | 25 | 0.0 | 0.0 | 0.00 | 0.00 | 0.00 | 64 | ||
| 20260504170322 | 25 | 0.0 | 0.0 | 0.00 | 0.00 | 0.00 | 62 | ||
| 20260504160322 | 26 | 0.0 | 0.0 | 0.00 | 0.00 | 0.00 | 57 | ||
| 20260504150322 | 27 | 0.0 | 0.0 | 0.00 | 0.00 | 0.00 | 47 | ||
| 20260504141322 | 27 | 0.0 | 0.0 | 0.00 | 0.00 | 0.00 | 47 | ||
| 20260504140322 | 27 | 0.0 | 0.0 | 0.00 | 0.00 | 0.00 | 49 | ||
| 20260504130322 | 28 | 0.0 | 0.0 | 0.00 | 0.00 | 0.00 | 45 | ||
| 20260504110321 | 27 | 0.0 | 0.0 | 0.00 | 0.00 | 0.00 | 48 | ||
| 20260504100321 | 27 | 0.0 | 0.0 | 0.00 | 0.00 | 0.00 | 45 | ||
| 20260504081321 | 34 | 0.0 | 0.0 | 0.00 | 0.00 | 0.00 | 21 | ||
| 20260504080321 | 33 | 0.0 | 0.0 | 0.00 | 0.00 | 0.00 | 23 | ||
| 20260504070321 | 35 | 0.0 | 0.0 | 0.00 | 0.00 | 0.00 | 22 | ||
| 20260504050321 | 30 | 0.0 | 0.0 | 0.00 | 0.00 | 0.00 | 45 | ||
| 20260504045321 | 29 | 0.0 | 0.0 | 0.00 | 0.00 | 0.00 | 35 | ||
| 20260504044321 | 30 | 0.0 | 0.0 | 0.00 | 0.00 | 0.00 | 35 | ||
| 20260504043320 | 30 | 0.0 | 0.0 | 0.00 | 0.00 | 0.00 | 38 | ||
| 20260504042320 | 31 | 0.0 | 0.0 | 0.00 | 0.00 | 0.00 | 32 | ||
| 20260504041320 | 35 | 0.0 | 0.0 | 0.00 | 0.00 | 0.00 | 26 | ||
| 20260504040320 | 33 | 0.0 | 0.0 | 0.00 | 0.00 | 0.00 | 25 | ||
| 20260504035320 | 35 | 0.0 | 0.0 | 0.00 | 0.00 | 0.00 | 25 | ||
| 20260504034320 | 32 | 0.0 | 0.0 | 0.00 | 0.00 | 0.00 | 34 | ||
| 20260504033320 | 32 | 0.0 | 0.0 | 0.00 | 0.00 | 0.00 | 34 | ||
| 20260504032320 | 32 | 0.0 | 0.0 | 0.00 | 0.00 | 0.00 | 38 | ||
| 20260504031320 | 31 | 0.0 | 0.0 | 0.00 | 0.00 | 0.00 | 39 | ||
| 20260504030320 | 31 | 0.0 | 0.0 | 0.00 | 0.00 | 0.00 | 41 | ||
| 20260504025320 | 31 | 0.0 | 0.0 | 0.00 | 0.00 | 0.00 | 42 | ||
| 20260504024320 | 30 | 0.0 | 0.0 | 0.00 | 0.00 | 0.00 | 43 | ||
| 20260504023320 | 31 | 0.0 | 0.0 | 0.00 | 0.00 | 0.00 | 43 | ||
| 20260504022320 | 30 | 0.0 | 0.0 | 0.00 | 0.00 | 0.00 | 43 | ||
| 20260504021320 | 30 | 0.0 | 0.0 | 0.00 | 0.00 | 0.00 | 44 | ||
| 20260504020320 | 30 | 0.0 | 0.0 | 0.00 | 0.00 | 0.00 | 46 | ||
| 20260504015320 | 28 | 0.0 | 0.0 | 0.00 | 0.00 | 0.00 | 49 | ||
| 20260504014320 | 28 | 0.0 | 0.0 | 0.00 | 0.00 | 0.00 | 50 | ||
| 20260504013320 | 28 | 0.0 | 0.0 | 0.00 | 0.00 | 0.00 | 51 | ||
| 20260504012320 | 28 | 0.0 | 0.0 | 0.00 | 0.00 | 0.00 | 51 | ||
| 20260504011320 | 28 | 0.0 | 0.0 | 0.00 | 0.00 | 0.00 | 51 | ||
| 20260504010320 | 28 | 0.0 | 0.0 | 0.00 | 0.00 | 0.00 | 52 | ||
| 20260504005320 | 27 | 0.0 | 0.0 | 0.00 | 0.00 | 0.00 | 56 | ||
| 20260504004320 | 28 | 0.0 | 0.0 | 0.00 | 0.00 | 0.00 | 56 | ||
| 20260504003320 | 27 | 0.0 | 0.0 | 0.00 | 0.00 | 0.00 | 57 | ||
| 20260504002320 | 28 | 0.0 | 0.0 | 0.00 | 0.00 | 0.00 | 57 | ||
| 20260504001320 | 27 | 0.0 | 0.0 | 0.00 | 0.00 | 0.00 | 59 | ||
| 20260504000320 | 27 | 0.0 | 0.0 | 0.00 | 0.00 | 0.00 | 60 | ||
| 20260503235320 | 27 | 0.0 | 0.0 | 0.00 | 0.00 | 0.00 | 57 | ||
| 20260503234320 | 28 | 0.0 | 0.0 | 0.00 | 0.00 | 0.00 | 57 | ||
| 20260503233320 | 27 | 0.0 | 0.0 | 0.00 | 0.00 | 0.00 | 59 | ||
| 20260503232320 | 27 | 0.0 | 0.0 | 0.00 | 0.00 | 0.00 | 61 | ||
| 20260503231320 | 27 | 0.0 | 0.0 | 0.00 | 0.00 | 0.00 | 62 | ||
| 20260503230320 | 26 | 0.0 | 0.0 | 0.00 | 0.00 | 0.00 | 63 | ||
| 20260503225320 | 27 | 0.0 | 0.0 | 0.00 | 0.00 | 0.00 | 62 | ||
| 20260503224320 | 27 | 0.0 | 0.0 | 0.00 | 0.00 | 0.00 | 62 | ||
| 20260503223319 | 27 | 0.0 | 0.0 | 0.00 | 0.00 | 0.00 | 64 | ||
| 20260503222320 | 27 | 0.0 | 0.0 | 0.00 | 0.00 | 0.00 | 62 | ||
| 20260503221319 | 27 | 0.0 | 0.0 | 0.00 | 0.00 | 0.00 | 63 | ||
| 20260503220319 | 27 | 0.0 | 0.0 | 0.00 | 0.00 | 0.00 | 65 | ||
| 20260503215319 | 26 | 0.0 | 0.0 | 0.00 | 0.00 | 0.00 | 77 |